103  
ASUS41 KLWX 232211  
RWRLWX  
 
REGIONAL WEATHER ROUNDUP  
NATIONAL WEATHER SERVICE BALTIMORE MD/WASHINGTON DC  
600 PM EDT FRI AUG 23 2019  
 
NOTE: "FAIR" INDICATES FEW OR NO CLOUDS BELOW 12,000 FEET  
WITH NO SIGNIFICANT WEATHER AND/OR S TO VISIBILITY
.  
TC=TEMPERATURE CELSIUS  
 
* =NON NWS SITE. STATION DOES NOT REPORT PRECIPITATION (E.G. RAIN,  
SNOW, ETC.), THUNDER, OR FOG.
 
 
DCZ001-MDZ009-015-VAZ040>042-051-053>054-232300-  
WASHINGTON METRO  
 
CITY SKY/WX TMP DP RH WIND PRES REMARKS
 
WASHINGTON NAT LGT RAIN 70 65 84 N13 30.04S  
DULLES CLOUDY 68 61 78 N9 30.05S  
ANDREWS AFB LGT RAIN 66 64 94 N9 30.03S  
FT BELVOIR PTSUNNY 70 64 83 NW8 30.03S  
QUANTICO CLOUDY 69 66 90 N13 30.03F  
COLLEGE PARK* CLOUDY N/A N/A N/A N7 30.04S  
LEESBURG* CLOUDY 64 63 94 N8 30.08R  
MANASSAS* PTSUNNY 68 64 87 N10 30.05S  
GAITHERSBURG* CLOUDY 65 63 93 CALM 30.07R  
 

 
 
MDZ006>007-011-014-232300-  
BALTIMORE METRO  
 
CITY SKY/WX TMP DP RH WIND PRES REMARKS
 
BWI AIRPORT CLOUDY 67 61 81 VRB7 30.03S  
MD SCIENCE CTR N/A 68 61 78 MISG 30.06R  
MARTIN STATE CLOUDY 66 66 100 CALM 30.05R  
ANNAPOLIS CLOUDY 71 65 81 N9 30.03S  
ABERDEEN* CLOUDY 68 64 88 CALM 30.03R  
FORT MEADE* CLOUDY 64 61 88 N5 30.07S  
 

 
 
MDZ012-015-019>023-232300-  
MARYLAND EASTERN SHORE  
 
CITY SKY/WX TMP DP RH WIND PRES REMARKS
 
OCEAN CITY CLOUDY 69 68 96 NE10 29.96F  
SALISBURY CLOUDY 69 66 90 N7 29.98F  
BAY BRIDGE AP* CLOUDY 66 64 94 N8 30.02R  
CAMBRIDGE* PTSUNNY 66 66 100 NE7 29.99F  
EASTON* LGT RAIN 66 66 100 NW6 30.05R  
 

 
 
MDZ017>025-232300-  
SOUTHERN MARYLAND  
 
CITY SKY/WX TMP DP RH WIND PRES REMARKS
 
PATUXENT RIVER LGT RAIN 69 67 93 NE12 29.98F FOG  
ST INIGOES HVY RAIN 73 67 81 CALM 29.98S  
LEONARDTOWN* CLOUDY 68 66 94 NE5 30.02R  
 

 
 
MDZ003>005-232300-  
NORTH CENTRAL MARYLAND  
 
CITY SKY/WX TMP DP RH WIND PRES REMARKS
 
FREDERICK* NOT AVBL  
HAGERSTOWN APT FAIR 71 60 68 NE5 30.06S  
 

 
 
MDZ501>502-232300-  
WESTERN MARYLAND  
 
CITY SKY/WX TMP DP RH WIND PRES REMARKS
 
OAKLAND* PTSUNNY 59 52 77 NW3 30.14S  
CUMBERLAND* FAIR 70 61 73 SW3 30.11S  
 

 
 
VAZ025>031-232300-  
SHENANDOAH VALLEY  
 
CITY SKY/WX TMP DP RH WIND PRES REMARKS
 
WINCHESTER* CLOUDY 63 59 88 CALM 30.07R  
FRONT ROYAL* CLOUDY 64 63 94 CALM 30.08R  
LURAY* CLOUDY 64 63 94 N6 30.07F  
NEW MARKET* CLOUDY 65 64 94 NE7 30.07S  
STAUNTON* CLOUDY 65 63 90 E8 30.08S  
WAYNESBORO* CLOUDY 65 65 100 N6 30.07R  
 

 
 
WVZ021-048>050-054>055-232300-  
EASTERN WEST VIRGINIA PANHANDLE  
 
CITY SKY/WX TMP DP RH WIND PRES REMARKS
 
MARTINSBURG CLOUDY 67 60 78 CALM 30.06S  
PETERSBURG* CLOUDY 64 60 85 CALM 30.10R  
 

 
 
VAZ036>039-050-232300-  
CENTRAL FOOTHILLS  
 
CITY SKY/WX TMP DP RH WIND PRES REMARKS
 
CHARLOTTESVILL CLOUDY 71 64 78 NE9 30.03R  
CULPEPER* CLOUDY 69 63 79 N9 30.06R  
ORANGE* FAIR 68 63 83 NE8 30.03S  
GORDONSVILLE* CLOUDY 69 67 94 NE9 30.02S  
WARRENTON* CLOUDY 70 62 75 N8 30.04S  
 

 
 
VAZ055>057-232300-  
NORTH AND CENTRAL PIEDMONT  
 
CITY SKY/WX TMP DP RH WIND PRES REMARKS
 
FREDERICKSBRG* CLOUDY 68 68 99 N6 30.02S  
STAFFORD* CLOUDY 69 69 100 N8 30.07S  
 

 
 
NCZ024-NYZ072-PAZ021-071-VAZ022-071-232300-  
OTHER REGIONAL OBSERVATIONS  
 
CITY SKY/WX TMP DP RH WIND PRES REMARKS
 
NEW YORK CITY FAIR 72 59 63 VRB7 30.01S  
PHILADELPHIA LGT RAIN 70 62 76 NW9G22 30.02R  
PITTSBURGH PTSUNNY 72 48 42 N6 30.10F  
ROANOKE PTSUNNY 83 68 60 W5 30.00S  
RICHMOND LGT RAIN 70 67 90 N13 29.98R  
RALEIGH PTSUNNY 87 74 64 S5 29.94S HX 95  
 

 
 
ANZ530>537-232300-  
MARINE OBSERVATIONS  
 
STATION/POSITION TIME TEMP WIND PRES
 
AIR SEA DIR/SP/G  
(UTC) (F) (DEG/KT/KT) (MB)  
THOMAS PT LIGHT 2200 68 81 310/ 16/ 18 1017.7R  
BALT KEY BRIDGE 2124 67 350/ 10/ 12 1017.2  
COVE POINT 2124 68 50/ 12/ 14 1016.4  
LEWISETTA 2124 72 83 30/ 9/ 13 1015.9  
SOLOMONS ISLAND 2124 69 83 30/ 8/ 13 1015.2  
PINEY POINT 2124 40/ 9/ 12 N/A  
 

 
 
 
 
CLICK HERE TO GO TO PREVIOUS BULLETINS.

The Nexlab VA Page
The Nexlab MD Page
The Nexlab WV Page Main Text Page